This is the latest recevied weather packets stored in our database for station/object AG1T-20. If no packets are shown the sender has not sent any weather packets the latest 10 day(s).
| Time | Temp. | Humidity | Pressure | Rain* | Wind** | Luminosity | Snow |
|---|---|---|---|---|---|---|---|
| 1777686005 | 18.33° C | 26% | 1020.5 hPa | 0 mm | - | 27 W/m² | - |
| 1777685405 | 18.33° C | 25% | 1020.5 hPa | 0 mm | - | 30 W/m² | - |
| 1777684805 | 18.89° C | 27% | 1020.5 hPa | 0 mm | - | 33 W/m² | - |
| 1777684205 | 19.44° C | 22% | 1020.5 hPa | 0 mm | - | 37 W/m² | - |
| 1777683605 | 18.89° C | 23% | 1020.5 hPa | 0 mm | - | 37 W/m² | - |
| 1777683005 | 18.89° C | 26% | 1020.6 hPa | 0 mm | - | 48 W/m² | - |
| 1777682405 | 18.89° C | 26% | 1020.6 hPa | 0 mm | - | 56 W/m² | - |
| 1777681805 | 18.33° C | 27% | 1020.6 hPa | 0 mm | - | 44 W/m² | - |
| 1777681205 | 18.89° C | 24% | 1020.6 hPa | 0 mm | - | 82 W/m² | - |
| 1777680605 | 18.89° C | 25% | 1020.6 hPa | 0 mm | - | 95 W/m² | - |
| 1777680005 | 18.33° C | 26% | 1020.6 hPa | 0 mm | - | 117 W/m² | - |
| 1777679405 | 18.89° C | 26% | 1020.7 hPa | 0 mm | - | 141 W/m² | - |
| 1777678804 | 18.89° C | 27% | 1020.7 hPa | 0 mm | - | 166 W/m² | - |
| 1777678205 | 18.89° C | 24% | 1020.7 hPa | 0 mm | - | 193 W/m² | - |
| 1777677605 | 18.89° C | 26% | 1020.7 hPa | 0 mm | - | 221 W/m² | - |
| 1777677005 | 18.89° C | 25% | 1020.7 hPa | 0 mm | - | 253 W/m² | - |
| 1777676405 | 18.89° C | 26% | 1020.7 hPa | 0 mm | - | 282 W/m² | - |
| 1777675805 | 18.89° C | 25% | 1021.4 hPa | 0 mm | - | 315 W/m² | - |
| 1777675205 | 18.33° C | 26% | 1021.4 hPa | 0 mm | - | 348 W/m² | - |
| 1777674605 | 18.89° C | 25% | 1021.4 hPa | 0 mm | - | 383 W/m² | - |
| 1777674005 | 19.44° C | 28% | 1021.4 hPa | 0 mm | - | 416 W/m² | - |
| 1777673405 | 18.33° C | 25% | 1021.4 hPa | 0 mm | - | 449 W/m² | - |
| 1777672805 | 18.33° C | 26% | 1021.4 hPa | 0 mm | - | 481 W/m² | - |
| 1777672205 | 17.78° C | 27% | 1021.9 hPa | 0 mm | - | 516 W/m² | - |
| 1777671605 | 18.33° C | 29% | 1021.9 hPa | 0 mm | - | 548 W/m² | - |
* Rain latest hour (hover to see other rain measurements)
** Current wind speed in m/s (hover to see current wind gust speed)